Content
SEND FEEDBACK

United States of America Flag

POINTE A LA HACHE, LOUISIANA


Home > North America > United States > Louisiana
Elevation: 1 meter     Latitude: 29 35N     Longitude: 089 50W

WEATHER
 
SELECT A DAY
Number of Records: 184,965;   Date Range: 1/1/95 - 3/22/16
 
SHARE

PRINT THIS DATA

[ ← Previous Day ]
WEATHER ALMANAC - 22 JANUARY, 2013
[ Next Day → ]
[ °F ]   °C
Weather ElementAverageHighLow
Temperature9.9 °C15.6 °C (1:55 pm)6.1 °C (6:55 am)
Dewpoint4.1 °C6.1 °C (4:55 pm)2.2 °C (6:55 am)
Humidity68.5 %86 % (11:55 pm)46 % (1:55 pm)
Barometer1026.8 hPa1028.8 hPa (9:55 am)1024 hPa (1:55 am)
Wind Speed7.4 km/h14.8 km/h (9:55 am)
Weather ElementAverage
Visibility16.1 km
Wind DirectionENE (55.5 °)

Weather ElementTotal
Precipitation---
Heating Degree Days7.5 (Base 18.3)
Growing Degree Days0.9 (Base 10)
Averaged from 22 records on 22 January, 2013
WEATHER CONDITIONS BREAKOUT
WIND DIRECTION BREAKOUT
WEATHER BY HOUR - 22 JANUARY, 2013
[ °F ]   °C
Local TimeTemperatureDewpointHumidityBarometerVisibilityWind DirectionWind SpeedGust SpeedPrecipitationEventsConditions
1:55 AM10.6 °C5.6 °C71 %1024 hPa16.1 kmNNE (30°)9.3 km/hClear
2:55 AM9.4 °C4.4 °C71 %1024.4 hPa16.1 kmNE (40°)7.4 km/hClear
3:55 AM8.3 °C3.9 °C74 %1024.4 hPa16.1 kmENE (60°)9.3 km/hClear
4:55 AM8.3 °C4.4 °C77 %1025.1 hPa16.1 kmNNE (20°)5.6 km/hClear
5:55 AM7.2 °C3.9 °C80 %1025.7 hPa16.1 kmNNE (30°)9.3 km/hClear
6:08 AM8 °C4 °C76 %1026.1 hPa16.1 kmNNE (30°)7.4 km/hMostly Cloudy
6:55 AM6.1 °C2.2 °C76 %1026.4 hPa16.1 kmNE (40°)11.1 km/hMostly Cloudy
7:55 AM8.3 °C2.8 °C68 %1027.1 hPa16.1 kmNNE (30°)9.3 km/hMostly Cloudy
8:55 AM9.4 °C2.8 °C64 %1028.1 hPa16.1 kmNE (40°)11.1 km/hMostly Cloudy
9:55 AM10.6 °C2.2 °C56 %1028.8 hPa16.1 kmENE (70°)14.8 km/hMostly Cloudy
11:55 AM13.3 °C3.3 °C51 %1027.8 hPa16.1 kmESE (110°)13 km/hScattered Clouds
1:55 PM15.6 °C3.9 °C46 %1026.1 hPa16.1 kmEast (100°)11.1 km/hPartly Cloudy
2:55 PM15 °C5 °C51 %1026.1 hPa16.1 kmESE (120°)11.1 km/hClear
3:55 PM15.6 °C5 °C49 %1026.4 hPa16.1 kmEast (90°)11.1 km/hClear
4:55 PM13.9 °C6.1 °C59 %1026.4 hPa16.1 kmSE (130°)11.1 km/hClear
5:55 PM12.2 °C5.6 °C64 %1026.8 hPa16.1 kmSE (130°)5.6 km/hClear
6:55 PM10 °C5 °C71 %1027.4 hPa16.1 kmSSE (150°)5.6 km/hClear
7:55 PM10 °C5 °C71 %1027.4 hPa16.1 kmCalmClear
8:55 PM7.8 °C4.4 °C79 %1027.8 hPa16.1 kmCalmClear
9:55 PM6.7 °C4.4 °C85 %1028.1 hPa16.1 kmCalmClear
10:55 PM6.1 °C3.3 °C82 %1028.4 hPa16.1 kmCalmClear
11:55 PM6.1 °C3.9 °C86 %1027.8 hPaCalmClear
Hourly data recorded from KNBG, located 0 kilometers away from Pointe A La Hache, Louisiana




STORIES FROM OUR PARTNERS